[Date Prev][Date Next][Thread Prev][Thread Next] - [Date Index][Thread Index][Author Index]
2 Line ISS Keps 6-20
- Subject: [sarex] 2 Line ISS Keps 6-20
- From: "Dave Larsen PhD" <doc@xxxxxxxxxxx>
- Date: Thu, 20 Jun 2002 05:51:31 -0700
ISS
1 25544U 98067A 02171.39748843 .00019488 00000-0 26165-3 0 5828
2 25544 51.6370 36.8101 0006892 258.7846 97.9165 15.57913968204522
----
Via the sarex mailing list at AMSAT.ORG courtesy of AMSAT-NA.
To unsubscribe, send "unsubscribe sarex" to Majordomo@amsat.org
AMSAT Home